contact:dominique.lefevre@mio.osupytheas.fr, maurice.libes@osupytheas.fr, didier.mallarino@osupytheas.fr
Project:EMSO http://www.emso-fr.org/EMSO-France
Depth: 2436.0 m
Title:EMSO Ligure Ouest : Data MII capteur AQUADOPP
Date,Latitude,Longitude,X_East,Y_North,Z_Up,Amplitude_X,Amplitude_Y,Amplitude_Z,Batterie,SoundSpeed,Heading,Pitch,Roll,Pressure,TIS,Speed,Direction
, degrees North, degrees East, m.s-1, m.s-1,m.s-1, 1, 1, 1, Volt, m.s-1, degree, degree, degree, dbar, degree_C, m.s-1, degree
2023-09-04T00:04:03,42.805,6.029,-0.007,0.008,-0.003,106.0,103.0,102.0,13.4,1505.2,324.9,-0.8,1.8,2471.57,13.29,0.01,318.8
2023-09-04T00:07:03,42.805,6.029,-0.01,-0.008,-0.025,104.0,102.0,102.0,13.4,1505.2,344.5,-0.8,1.8,2471.562,13.3,0.012,231.3
2023-09-04T00:10:03,42.805,6.029,0.013,0.002,0.0,104.0,103.0,102.0,13.4,1505.2,341.9,-0.8,1.8,2471.594,13.3,0.013,81.3
2023-09-04T00:13:03,42.805,6.029,0.003,0.016,0.009,104.0,102.0,101.0,13.4,1505.2,333.4,-0.8,1.8,2471.578,13.3,0.016,10.6
2023-09-04T00:16:03,42.805,6.029,0.001,0.011,-0.043,104.0,102.0,100.0,13.3,1505.2,329.9,-0.8,1.8,2471.572,13.3,0.011,5.2
2023-09-04T00:19:03,42.805,6.029,0.022,0.011,-0.02,104.0,104.0,103.0,13.3,1505.2,347.0,-0.8,1.8,2471.553,13.3,0.024,63.4
2023-09-04T00:22:03,42.805,6.029,0.005,0.004,-0.016,104.0,103.0,101.0,13.4,1505.2,331.6,-0.8,1.8,2471.555,13.3,0.006,51.3
2023-09-04T00:25:03,42.805,6.029,0.017,0.005,-0.016,103.0,105.0,102.0,13.4,1505.2,352.8,-0.8,1.8,2471.498,13.3,0.017,73.6
2023-09-04T00:28:03,42.805,6.029,-0.002,0.004,0.009,104.0,103.0,103.0,13.4,1505.2,325.5,-0.8,1.8,2471.533,13.3,0.004,333.4
2023-09-04T00:31:03,42.805,6.029,-0.006,0.008,-0.002,103.0,103.0,102.0,13.3,1505.2,340.5,-0.7,1.8,2471.519,13.3,0.01,323.1
2023-09-04T00:34:03,42.805,6.029,-0.001,0.008,0.0,103.0,103.0,102.0,13.3,1505.2,349.1,-0.8,1.8,2471.518,13.3,0.008,352.9
2023-09-04T00:37:03,42.805,6.029,0.006,0.021,0.005,104.0,102.0,102.0,13.3,1505.2,343.6,-0.8,1.9,2471.51,13.3,0.021,15.9
2023-09-04T00:40:03,42.805,6.029,-0.006,0.015,-0.01,104.0,103.0,102.0,13.4,1505.2,328.7,-0.7,1.8,2471.494,13.3,0.016,338.2
2023-09-04T00:43:03,42.805,6.029,-0.009,0.013,-0.004,103.0,105.0,102.0,13.4,1505.2,340.0,-0.8,1.8,2471.502,13.3,0.015,325.3
2023-09-04T00:46:03,42.805,6.029,0.017,0.0,0.011,105.0,104.0,102.0,13.4,1505.2,330.7,-0.8,1.8,2471.51,13.3,0.017,90.0
2023-09-04T00:49:03,42.805,6.029,-0.006,-0.006,-0.045,104.0,105.0,102.0,13.3,1505.2,336.6,-0.8,1.8,2471.526,13.3,0.008,225.0
2023-09-04T00:52:03,42.805,6.029,-0.007,0.001,-0.015,104.0,102.0,104.0,13.4,1505.2,324.8,-0.8,1.8,2471.504,13.3,0.007,278.1
2023-09-04T00:55:03,42.805,6.029,0.019,0.0,-0.014,102.0,104.0,102.0,13.4,1505.2,331.0,-0.8,1.8,2471.496,13.3,0.019,90.0
2023-09-04T00:58:03,42.805,6.029,0.001,-0.006,-0.053,105.0,104.0,102.0,13.4,1505.2,344.9,-0.8,1.8,2471.491,13.3,0.006,170.5
2023-09-04T01:04:03,42.805,6.029,-0.012,0.029,-0.001,105.0,104.0,101.0,13.4,1505.2,324.0,-0.8,1.8,2471.535,13.29,0.031,337.5
2023-09-04T01:07:03,42.805,6.029,-0.009,0.004,-0.04,104.0,102.0,101.0,13.3,1505.2,339.3,-0.8,1.8,2471.533,13.29,0.009,294.0
2023-09-04T01:10:03,42.805,6.029,-0.031,0.009,-0.042,103.0,104.0,100.0,13.4,1505.2,330.5,-0.8,1.8,2471.537,13.29,0.032,286.2
2023-09-04T01:13:03,42.805,6.029,-0.011,0.016,-0.001,103.0,104.0,102.0,13.4,1505.2,342.6,-0.8,1.8,2471.49,13.29,0.019,325.5
2023-09-04T01:16:03,42.805,6.029,-0.003,0.008,-0.011,103.0,103.0,102.0,13.4,1505.2,347.9,-0.8,1.8,2471.511,13.29,0.008,339.4
2023-09-04T01:19:03,42.805,6.029,-0.009,0.019,0.0,104.0,102.0,102.0,13.4,1505.2,331.8,-0.8,1.8,2471.489,13.29,0.021,334.7
2023-09-04T01:22:03,42.805,6.029,0.018,0.011,-0.005,105.0,105.0,101.0,13.4,1505.2,331.1,-0.7,1.8,2471.497,13.29,0.021,58.6
2023-09-04T01:25:03,42.805,6.029,-0.014,-0.004,-0.054,103.0,104.0,101.0,13.3,1505.2,324.1,-0.8,1.8,2471.462,13.29,0.014,254.1
2023-09-04T01:28:03,42.805,6.029,0.004,-0.005,-0.033,105.0,103.0,101.0,13.4,1505.2,339.1,-0.8,1.8,2471.476,13.29,0.006,141.3
2023-09-04T01:31:03,42.805,6.029,-0.004,0.024,0.007,105.0,102.0,102.0,13.4,1505.2,346.7,-0.7,1.8,2471.462,13.29,0.024,350.5
2023-09-04T01:34:03,42.805,6.029,-0.001,-0.01,-0.03,104.0,103.0,102.0,13.4,1505.2,327.1,-0.8,1.8,2471.489,13.29,0.01,185.7
2023-09-04T01:37:03,42.805,6.029,-0.007,0.019,-0.008,103.0,103.0,101.0,13.4,1505.2,347.8,-0.8,1.8,2471.484,13.29,0.02,339.8
2023-09-04T01:40:03,42.805,6.029,-0.016,-0.017,-0.025,103.0,103.0,102.0,13.4,1505.2,333.9,-0.8,1.8,2471.468,13.29,0.023,223.3
2023-09-04T01:43:03,42.805,6.029,0.007,0.01,-0.009,104.0,102.0,102.0,13.4,1505.2,350.3,-0.8,1.8,2471.466,13.29,0.012,35.0
2023-09-04T01:46:03,42.805,6.029,-0.001,0.021,0.023,104.0,105.0,102.0,13.4,1505.2,340.4,-0.7,1.8,2471.461,13.29,0.021,357.3
2023-09-04T01:49:03,42.805,6.029,0.005,-0.005,-0.037,103.0,103.0,102.0,13.3,1505.2,323.6,-0.8,1.8,2471.487,13.29,0.007,135.0
2023-09-04T01:52:03,42.805,6.029,-0.02,-0.003,-0.011,103.0,102.0,102.0,13.4,1505.2,345.1,-0.8,1.8,2471.479,13.29,0.02,261.5
2023-09-04T01:55:03,42.805,6.029,-0.014,0.017,-0.023,104.0,102.0,102.0,13.4,1505.2,335.2,-0.8,1.8,2471.455,13.29,0.022,320.5
2023-09-04T01:58:03,42.805,6.029,-0.007,0.012,-0.036,103.0,104.0,101.0,13.4,1505.2,344.7,-0.7,1.8,2471.46,13.29,0.013,329.7
2023-09-04T02:04:03,42.805,6.029,0.005,0.005,-0.019,103.0,103.0,102.0,13.4,1505.2,332.5,-0.8,1.8,2471.489,13.29,0.007,45.0
2023-09-04T02:07:03,42.805,6.029,-0.013,-0.004,-0.024,102.0,103.0,102.0,13.4,1505.2,334.3,-0.8,1.8,2471.489,13.29,0.013,252.9
2023-09-04T02:10:03,42.805,6.029,-0.009,-0.004,-0.039,103.0,104.0,101.0,13.4,1505.2,344.4,-0.8,1.8,2471.544,13.29,0.009,246.0
2023-09-04T02:13:03,42.805,6.029,-0.017,0.008,0.0,103.0,102.0,103.0,13.3,1505.2,338.2,-0.8,1.8,2471.448,13.29,0.018,295.2
2023-09-04T02:16:03,42.805,6.029,-0.007,0.0,-0.036,102.0,103.0,102.0,13.4,1505.2,324.7,-0.8,1.8,2471.477,13.29,0.007,270.0
2023-09-04T02:19:03,42.805,6.029,-0.023,0.009,-0.017,102.0,102.0,102.0,13.3,1505.2,325.2,-0.8,1.8,2471.44,13.29,0.024,291.4
2023-09-04T02:22:03,42.805,6.029,-0.023,0.018,-0.025,104.0,104.0,101.0,13.4,1505.2,332.0,-0.7,1.8,2471.462,13.29,0.029,308.0
2023-09-04T02:25:03,42.805,6.029,-0.008,0.001,-0.035,104.0,103.0,101.0,13.4,1505.2,336.6,-0.8,1.8,2471.487,13.29,0.008,277.1
2023-09-04T02:28:03,42.805,6.029,-0.01,-0.005,-0.02,106.0,102.0,101.0,13.4,1505.2,325.3,-0.8,1.8,2471.412,13.29,0.011,243.4
2023-09-04T02:31:03,42.805,6.029,-0.011,0.008,-0.027,103.0,103.0,103.0,13.4,1505.2,338.3,-0.8,1.8,2471.412,13.29,0.013,306.0
2023-09-04T02:34:03,42.805,6.029,-0.007,0.013,-0.006,103.0,103.0,102.0,13.4,1505.2,332.4,-0.7,1.8,2471.431,13.29,0.014,331.7
2023-09-04T02:37:03,42.805,6.029,-0.002,0.0,-0.001,105.0,102.0,102.0,13.4,1505.2,353.2,-0.8,1.9,2471.432,13.29,0.002,270.0
2023-09-04T02:40:03,42.805,6.029,-0.014,0.014,-0.006,102.0,104.0,103.0,13.4,1505.2,350.3,-0.8,1.8,2471.43,13.29,0.019,315.0
2023-09-04T02:43:03,42.805,6.029,-0.031,0.012,-0.032,103.0,103.0,101.0,13.4,1505.2,327.3,-0.8,1.8,2471.418,13.29,0.033,291.2
2023-09-04T02:46:03,42.805,6.029,-0.018,-0.001,-0.029,103.0,103.0,103.0,13.4,1505.2,331.4,-0.8,1.8,2471.432,13.29,0.018,266.8
2023-09-04T02:49:03,42.805,6.029,-0.025,-0.007,-0.033,106.0,103.0,102.0,13.3,1505.2,323.4,-0.7,1.8,2471.439,13.29,0.025,254.4
2023-09-04T02:52:03,42.805,6.029,-0.013,0.011,-0.028,103.0,104.0,102.0,13.4,1505.2,350.9,-0.8,1.8,2471.421,13.29,0.017,310.2
2023-09-04T02:55:03,42.805,6.029,0.009,0.007,-0.003,103.0,103.0,102.0,13.4,1505.2,354.9,-0.7,1.8,2471.441,13.29,0.011,52.1
2023-09-04T02:58:03,42.805,6.029,-0.007,-0.011,-0.017,104.0,103.0,103.0,13.4,1505.2,325.2,-0.8,1.8,2471.449,13.29,0.013,212.5
2023-09-04T03:04:03,42.805,6.029,-0.004,-0.023,-0.048,104.0,103.0,102.0,13.4,1505.2,343.7,-0.7,1.8,2471.469,13.29,0.023,189.9
2023-09-04T03:07:03,42.805,6.029,-0.011,-0.009,-0.041,104.0,103.0,101.0,13.4,1505.2,334.8,-0.7,1.8,2471.476,13.29,0.014,230.7
2023-09-04T03:10:03,42.805,6.029,-0.022,-0.001,-0.023,103.0,104.0,102.0,13.3,1505.2,330.3,-0.7,1.9,2471.428,13.29,0.022,267.4
2023-09-04T03:13:03,42.805,6.029,-0.005,0.008,-0.011,103.0,103.0,102.0,13.4,1505.2,332.5,-0.8,1.8,2471.429,13.29,0.009,328.0
2023-09-04T03:16:03,42.805,6.029,-0.015,0.004,-0.008,104.0,104.0,101.0,13.4,1505.2,342.8,-0.8,1.8,2471.435,13.29,0.015,284.9
2023-09-04T03:19:03,42.805,6.029,-0.009,0.003,-0.02,104.0,103.0,103.0,13.4,1505.2,334.2,-0.8,1.9,2471.439,13.29,0.009,288.4
2023-09-04T03:22:03,42.805,6.029,-0.038,0.019,-0.032,104.0,103.0,101.0,13.4,1505.2,333.8,-0.8,1.8,2471.413,13.29,0.042,296.6
2023-09-04T03:25:03,42.805,6.029,-0.024,0.018,-0.04,104.0,103.0,101.0,13.4,1505.2,335.5,-0.8,1.8,2471.426,13.29,0.03,306.9
2023-09-04T03:28:03,42.805,6.029,-0.015,0.02,-0.025,102.0,103.0,103.0,13.3,1505.2,347.8,-0.8,1.8,2471.418,13.29,0.025,323.1
2023-09-04T03:31:03,42.805,6.029,-0.011,0.008,-0.011,102.0,104.0,102.0,13.4,1505.2,344.3,-0.8,1.8,2471.424,13.29,0.013,306.0
2023-09-04T03:34:03,42.805,6.029,-0.028,0.0,-0.012,104.0,103.0,101.0,13.4,1505.2,337.5,-0.8,1.8,2471.395,13.29,0.028,270.0
2023-09-04T03:37:03,42.805,6.029,-0.015,0.013,-0.013,103.0,103.0,102.0,13.4,1505.2,339.5,-0.8,1.8,2471.415,13.29,0.019,310.9
2023-09-04T03:40:03,42.805,6.029,0.012,0.009,-0.009,103.0,104.0,102.0,13.4,1505.2,354.2,-0.8,1.8,2471.368,13.29,0.015,53.1
2023-09-04T03:43:03,42.805,6.029,-0.022,0.017,0.011,103.0,103.0,101.0,13.4,1505.2,326.5,-0.8,1.8,2471.425,13.29,0.027,307.7
2023-09-04T03:46:03,42.805,6.029,-0.022,0.005,0.011,103.0,103.0,102.0,13.4,1505.2,343.4,-0.8,1.8,2471.423,13.29,0.022,282.8
2023-09-04T03:49:03,42.805,6.029,0.0,-0.005,0.01,104.0,102.0,101.0,13.3,1505.2,347.4,-0.8,1.8,2471.414,13.29,0.005,180.0
2023-09-04T03:52:03,42.805,6.029,-0.011,0.011,-0.005,105.0,104.0,101.0,13.4,1505.2,334.2,-0.8,1.8,2471.386,13.29,0.015,315.0
2023-09-04T03:55:03,42.805,6.029,-0.003,-0.005,-0.039,104.0,103.0,102.0,13.4,1505.2,329.0,-0.7,1.8,2471.398,13.29,0.005,211.0
2023-09-04T03:58:03,42.805,6.029,0.0,0.01,-0.012,103.0,103.0,101.0,13.4,1505.2,346.2,-0.8,1.8,2471.354,13.29,0.01,0.0
2023-09-04T04:04:03,42.805,6.029,-0.003,-0.002,-0.01,103.0,102.0,102.0,13.4,1505.2,329.5,-0.7,1.8,2471.449,13.29,0.003,236.3
2023-09-04T04:07:03,42.805,6.029,0.0,0.01,0.013,103.0,102.0,101.0,13.4,1505.2,331.6,-0.8,1.8,2471.408,13.29,0.01,0.0
2023-09-04T04:10:03,42.805,6.029,-0.008,-0.027,-0.035,103.0,103.0,101.0,13.4,1505.2,355.5,-0.7,1.8,2471.435,13.29,0.028,196.5
2023-09-04T04:13:03,42.805,6.029,-0.004,0.007,-0.008,104.0,104.0,101.0,13.4,1505.2,342.3,-0.8,1.8,2471.399,13.29,0.008,330.3
2023-09-04T04:16:03,42.805,6.029,-0.004,-0.002,-0.015,103.0,103.0,102.0,13.4,1505.2,330.6,-0.8,1.8,2471.414,13.29,0.004,243.4
2023-09-04T04:19:03,42.805,6.029,-0.025,0.002,-0.035,104.0,103.0,102.0,13.3,1505.2,350.5,-0.8,1.8,2471.395,13.29,0.025,274.6
2023-09-04T04:22:03,42.805,6.029,-0.021,0.003,-0.03,103.0,103.0,101.0,13.4,1505.2,332.4,-0.8,1.8,2471.406,13.29,0.021,278.1
2023-09-04T04:25:03,42.805,6.029,-0.006,-0.005,-0.021,103.0,103.0,101.0,13.4,1505.2,345.3,-0.8,1.8,2471.404,13.29,0.007,230.2
2023-09-04T04:28:03,42.805,6.029,-0.015,0.026,0.024,103.0,103.0,101.0,13.4,1505.2,338.8,-0.8,1.8,2471.411,13.29,0.03,330.0
2023-09-04T04:31:03,42.805,6.029,-0.03,0.008,-0.011,103.0,104.0,101.0,13.4,1505.2,325.4,-0.7,1.8,2471.395,13.29,0.031,284.9
2023-09-04T04:34:03,42.805,6.029,-0.011,0.019,0.013,103.0,102.0,102.0,13.4,1505.2,338.2,-0.8,1.8,2471.399,13.29,0.021,329.9
2023-09-04T04:37:03,42.805,6.029,-0.008,0.007,0.0,103.0,103.0,102.0,13.4,1505.2,342.2,-0.8,1.8,2471.403,13.29,0.01,311.2
2023-09-04T04:40:03,42.805,6.029,-0.013,0.012,-0.024,103.0,103.0,102.0,13.4,1505.2,331.6,-0.8,1.8,2471.391,13.29,0.017,312.7
2023-09-04T04:43:03,42.805,6.029,-0.017,0.001,0.002,103.0,103.0,102.0,13.4,1505.2,329.8,-0.8,1.8,2471.381,13.29,0.017,273.4
2023-09-04T04:46:03,42.805,6.029,0.0,0.002,-0.027,103.0,104.0,102.0,13.4,1505.2,331.8,-0.8,1.8,2471.358,13.29,0.002,0.0
2023-09-04T04:49:03,42.805,6.029,0.005,-0.005,-0.028,104.0,104.0,101.0,13.4,1505.2,343.7,-0.8,1.8,2471.387,13.29,0.007,135.0
2023-09-04T04:52:03,42.805,6.029,0.0,0.01,0.0,109.0,103.0,102.0,13.3,1505.2,350.3,-0.7,1.8,2471.373,13.29,0.01,0.0
2023-09-04T04:55:03,42.805,6.029,-0.02,0.015,-0.014,103.0,104.0,101.0,13.4,1505.2,352.3,-0.8,1.8,2471.378,13.29,0.025,306.9
2023-09-04T04:58:03,42.805,6.029,-0.018,0.001,-0.05,102.0,103.0,102.0,13.4,1505.2,349.6,-0.8,1.8,2471.397,13.29,0.018,273.2
2023-09-04T05:04:03,42.805,6.029,-0.014,0.026,-0.015,103.0,102.0,101.0,13.4,1505.2,330.2,-0.8,1.8,2471.448,13.29,0.029,331.7
2023-09-04T05:07:03,42.805,6.029,0.006,0.001,-0.003,103.0,103.0,101.0,13.4,1505.2,347.7,-0.8,1.8,2471.419,13.29,0.006,80.5
2023-09-04T05:10:03,42.805,6.029,-0.017,-0.004,-0.044,104.0,104.0,101.0,13.4,1505.2,336.2,-0.7,1.8,2471.394,13.29,0.017,256.8
2023-09-04T05:13:03,42.805,6.029,0.015,0.001,-0.032,103.0,102.0,103.0,13.3,1505.2,338.6,-0.8,1.8,2471.42,13.29,0.015,86.2
2023-09-04T05:16:03,42.805,6.029,-0.002,0.01,-0.025,102.0,103.0,102.0,13.4,1505.2,333.4,-0.8,1.9,2471.388,13.29,0.01,348.7
2023-09-04T05:19:03,42.805,6.029,-0.01,0.016,-0.003,103.0,104.0,103.0,13.4,1505.2,322.7,-0.8,1.8,2471.423,13.29,0.018,328.0
2023-09-04T05:22:03,42.805,6.029,-0.016,0.012,-0.028,104.0,103.0,101.0,13.4,1505.2,351.8,-0.7,1.8,2471.414,13.29,0.02,306.9
2023-09-04T05:25:03,42.805,6.029,0.008,0.014,-0.012,103.0,103.0,101.0,13.4,1505.2,344.9,-0.8,1.8,2471.361,13.29,0.016,29.7
2023-09-04T05:28:03,42.805,6.029,-0.025,0.015,-0.035,104.0,102.0,102.0,13.4,1505.2,336.6,-0.7,1.8,2471.363,13.29,0.029,301.0
2023-09-04T05:31:03,42.805,6.029,-0.004,0.013,-0.011,103.0,104.0,101.0,13.4,1505.2,340.4,-0.8,1.8,2471.408,13.29,0.013,342.9
2023-09-04T05:34:03,42.805,6.029,-0.033,0.03,-0.019,103.0,102.0,101.0,13.4,1505.2,343.3,-0.8,1.8,2471.371,13.29,0.044,312.3
2023-09-04T05:37:03,42.805,6.029,-0.01,0.011,-0.015,104.0,103.0,101.0,13.4,1505.2,349.7,-0.7,1.8,2471.436,13.29,0.014,317.7
2023-09-04T05:40:03,42.805,6.029,-0.004,0.015,-0.035,104.0,103.0,101.0,13.3,1505.2,340.4,-0.8,1.8,2471.398,13.29,0.015,345.1
2023-09-04T05:43:03,42.805,6.029,-0.001,-0.009,-0.057,103.0,104.0,101.0,13.4,1505.2,337.6,-0.8,1.8,2471.399,13.29,0.009,186.3
2023-09-04T05:46:03,42.805,6.029,-0.02,0.021,-0.023,103.0,104.0,101.0,13.4,1505.2,349.1,-0.7,1.8,2471.386,13.29,0.028,316.4
2023-09-04T05:49:03,42.805,6.029,-0.011,-0.015,-0.036,103.0,103.0,102.0,13.4,1505.2,323.5,-0.8,1.8,2471.422,13.29,0.018,216.3
2023-09-04T05:52:03,42.805,6.029,-0.012,0.036,0.021,103.0,102.0,102.0,13.4,1505.2,342.6,-0.8,1.8,2471.374,13.29,0.037,341.6
2023-09-04T05:55:03,42.805,6.029,-0.027,0.009,-0.031,105.0,103.0,101.0,13.4,1505.2,343.3,-0.8,1.8,2471.367,13.29,0.028,288.4
2023-09-04T05:58:03,42.805,6.029,-0.021,0.012,-0.034,104.0,103.0,101.0,13.3,1505.2,325.5,-0.8,1.8,2471.384,13.29,0.024,299.7
2023-09-04T06:04:03,42.805,6.029,-0.014,-0.005,-0.056,102.0,104.0,101.0,13.4,1505.2,335.0,-0.7,1.8,2471.467,13.29,0.014,250.4
2023-09-04T06:07:03,42.805,6.029,0.002,0.009,0.005,105.0,102.0,103.0,13.3,1505.2,347.0,-0.8,1.8,2471.46,13.29,0.009,12.5
2023-09-04T06:10:03,42.805,6.029,-0.002,-0.001,-0.004,103.0,104.0,101.0,13.3,1505.2,340.4,-0.8,1.8,2471.415,13.29,0.002,243.4
2023-09-04T06:13:03,42.805,6.029,0.003,0.018,0.02,103.0,102.0,102.0,13.3,1505.2,336.0,-0.8,1.8,2471.421,13.29,0.018,9.5
2023-09-04T06:16:03,42.805,6.029,-0.006,0.011,-0.026,103.0,102.0,101.0,13.3,1505.2,333.0,-0.7,1.8,2471.424,13.29,0.012,331.4
2023-09-04T06:19:03,42.805,6.029,0.001,0.002,-0.024,104.0,103.0,100.0,13.4,1505.2,352.0,-0.8,1.8,2471.406,13.29,0.002,26.6
2023-09-04T06:22:03,42.805,6.029,-0.013,0.003,0.002,104.0,102.0,101.0,13.4,1505.2,345.7,-0.8,1.8,2471.407,13.29,0.013,283.0
2023-09-04T06:25:03,42.805,6.029,-0.003,0.008,0.005,105.0,103.0,101.0,13.3,1505.2,341.5,-0.8,1.8,2471.445,13.29,0.008,339.4
2023-09-04T06:28:03,42.805,6.029,-0.005,0.012,-0.02,105.0,104.0,102.0,13.3,1505.2,339.0,-0.7,1.8,2471.414,13.29,0.013,337.4
2023-09-04T06:31:03,42.805,6.029,-0.011,0.021,-0.001,105.0,102.0,103.0,13.3,1505.2,324.0,-0.7,1.8,2471.409,13.29,0.023,332.4
2023-09-04T06:34:03,42.805,6.029,-0.002,0.022,-0.011,103.0,103.0,102.0,13.3,1505.2,344.2,-0.7,1.8,2471.42,13.29,0.022,354.8
2023-09-04T06:37:03,42.805,6.029,0.002,-0.004,-0.01,104.0,104.0,101.0,13.4,1505.2,350.5,-0.8,1.8,2471.449,13.29,0.004,153.4
2023-09-04T06:40:03,42.805,6.029,-0.004,0.008,0.014,104.0,104.0,101.0,13.3,1505.2,326.3,-0.7,1.8,2471.418,13.29,0.008,333.4
2023-09-04T06:43:03,42.805,6.029,0.012,0.005,-0.017,104.0,102.0,101.0,13.3,1505.2,334.2,-0.7,1.8,2471.44,13.29,0.013,67.4
2023-09-04T06:46:03,42.805,6.029,-0.024,0.022,-0.008,103.0,104.0,102.0,13.4,1505.2,345.4,-0.8,1.8,2471.4,13.29,0.032,312.5
2023-09-04T06:49:03,42.805,6.029,-0.023,0.009,-0.038,103.0,103.0,101.0,13.4,1505.2,342.9,-0.8,1.8,2471.443,13.29,0.024,291.4
2023-09-04T06:52:03,42.805,6.029,-0.002,0.014,-0.023,103.0,105.0,102.0,13.4,1505.2,338.4,-0.8,1.8,2471.428,13.29,0.014,351.9
2023-09-04T06:55:03,42.805,6.029,0.01,-0.008,-0.025,105.0,104.0,102.0,13.3,1505.2,324.9,-0.8,1.8,2471.437,13.29,0.012,128.7
2023-09-04T06:58:03,42.805,6.029,-0.004,0.003,-0.033,105.0,102.0,103.0,13.3,1505.2,342.6,-0.8,1.8,2471.458,13.29,0.005,306.9
2023-09-04T07:04:03,42.805,6.029,0.0,0.016,0.001,104.0,104.0,101.0,13.4,1505.2,333.9,-0.7,1.9,2471.51,13.29,0.016,0.0
2023-09-04T07:07:03,42.805,6.029,-0.013,0.001,-0.041,104.0,103.0,102.0,13.4,1505.2,329.0,-0.8,1.8,2471.51,13.29,0.013,274.4
2023-09-04T07:10:03,42.805,6.029,-0.008,0.02,-0.002,103.0,102.0,102.0,13.4,1505.2,326.5,-0.8,1.8,2471.489,13.29,0.021,338.2
2023-09-04T07:13:03,42.805,6.029,-0.026,0.011,-0.036,103.0,103.0,102.0,13.3,1505.2,336.0,-0.7,1.8,2471.503,13.29,0.028,292.9
2023-09-04T07:16:03,42.805,6.029,-0.021,0.021,-0.017,104.0,102.0,101.0,13.3,1505.2,331.4,-0.8,1.8,2471.474,13.29,0.029,315.0
2023-09-04T07:19:03,42.805,6.029,-0.003,-0.003,-0.019,105.0,103.0,102.0,13.3,1505.2,335.1,-0.8,1.8,2471.492,13.29,0.004,225.0
2023-09-04T07:22:03,42.805,6.029,-0.007,0.013,-0.026,103.0,103.0,102.0,13.3,1505.2,331.4,-0.8,1.8,2471.493,13.29,0.014,331.7
2023-09-04T07:25:03,42.805,6.029,-0.046,0.012,-0.012,105.0,104.0,102.0,13.3,1505.2,332.9,-0.7,1.8,2471.479,13.29,0.047,284.6
2023-09-04T07:28:03,42.805,6.029,-0.009,0.001,-0.006,104.0,103.0,102.0,13.4,1505.2,329.8,-0.8,1.8,2471.474,13.29,0.009,276.3
2023-09-04T07:31:03,42.805,6.029,-0.019,0.014,0.003,103.0,103.0,101.0,13.3,1505.2,343.0,-0.8,1.8,2471.461,13.29,0.023,306.4
2023-09-04T07:34:03,42.805,6.029,-0.012,0.032,-0.006,104.0,106.0,101.0,13.4,1505.2,332.9,-0.7,1.8,2471.445,13.29,0.034,339.4
2023-09-04T07:37:03,42.805,6.029,-0.03,0.02,-0.02,104.0,104.0,102.0,13.4,1505.2,330.7,-0.8,1.8,2471.494,13.29,0.036,303.7
2023-09-04T07:40:03,42.805,6.029,-0.017,0.043,-0.011,104.0,104.0,102.0,13.3,1505.2,334.3,-0.7,1.8,2471.486,13.29,0.046,338.4
2023-09-04T07:43:03,42.805,6.029,-0.028,0.022,-0.013,103.0,103.0,102.0,13.4,1505.2,333.9,-0.8,1.8,2471.479,13.29,0.035,308.2
2023-09-04T07:46:03,42.805,6.029,-0.032,0.019,0.005,105.0,103.0,101.0,13.3,1505.2,334.4,-0.8,1.8,2471.448,13.29,0.037,300.7
2023-09-04T07:49:03,42.805,6.029,-0.005,0.011,-0.021,104.0,104.0,101.0,13.3,1505.2,334.9,-0.8,1.8,2471.485,13.29,0.012,335.6
2023-09-04T07:52:03,42.805,6.029,-0.004,0.01,-0.006,102.0,104.0,102.0,13.4,1505.2,339.3,-0.8,1.8,2471.504,13.29,0.01,338.2
2023-09-04T07:55:03,42.805,6.029,-0.022,0.018,-0.032,104.0,103.0,101.0,13.4,1505.2,329.0,-0.8,1.8,2471.476,13.29,0.028,309.3
2023-09-04T07:58:03,42.805,6.029,-0.015,0.022,-0.015,104.0,104.0,101.0,13.4,1505.2,329.8,-0.8,1.8,2471.476,13.29,0.026,325.7
2023-09-04T08:04:03,42.805,6.029,-0.01,0.015,-0.027,104.0,103.0,101.0,13.4,1505.2,340.1,-0.8,1.8,2471.578,13.29,0.018,326.3
2023-09-04T08:07:03,42.805,6.029,-0.042,0.013,-0.006,105.0,104.0,101.0,13.3,1505.2,334.3,-0.8,1.8,2471.547,13.29,0.043,287.2
2023-09-04T08:10:03,42.805,6.029,-0.029,0.0,-0.008,103.0,104.0,101.0,13.3,1505.2,351.0,-0.7,1.8,2471.571,13.29,0.028,270.0
2023-09-04T08:13:03,42.805,6.029,-0.035,0.04,-0.001,105.0,103.0,102.0,13.4,1505.2,340.9,-0.8,1.8,2471.519,13.29,0.053,318.8
2023-09-04T08:16:03,42.805,6.029,-0.024,0.013,-0.013,103.0,102.0,102.0,13.4,1505.2,330.5,-0.8,1.8,2471.523,13.29,0.027,298.4
2023-09-04T08:19:03,42.805,6.029,-0.022,0.019,0.029,104.0,103.0,102.0,13.3,1505.2,350.1,-0.8,1.8,2471.52,13.29,0.029,310.8
2023-09-04T08:22:03,42.805,6.029,-0.028,0.022,-0.052,104.0,103.0,101.0,13.4,1505.2,354.2,-0.8,1.8,2471.479,13.29,0.035,308.2
2023-09-04T08:25:03,42.805,6.029,-0.012,-0.004,-0.038,103.0,104.0,102.0,13.4,1505.2,354.4,-0.7,1.8,2471.566,13.29,0.012,251.6
2023-09-04T08:28:03,42.805,6.029,-0.004,0.004,-0.01,103.0,105.0,102.0,13.3,1505.2,334.2,-0.7,1.9,2471.529,13.29,0.005,315.0
2023-09-04T08:31:03,42.805,6.029,-0.018,0.011,0.015,104.0,103.0,102.0,13.4,1505.2,343.3,-0.8,1.8,2471.53,13.29,0.021,301.4
2023-09-04T08:34:03,42.805,6.029,-0.011,0.037,0.012,105.0,103.0,102.0,13.4,1505.2,352.8,-0.8,1.8,2471.509,13.29,0.038,343.4
2023-09-04T08:37:03,42.805,6.029,-0.002,0.005,-0.013,104.0,104.0,101.0,13.4,1505.2,345.0,-0.7,1.8,2471.528,13.29,0.005,338.2
2023-09-04T08:40:03,42.805,6.029,-0.031,0.033,-0.035,104.0,103.0,102.0,13.4,1505.2,349.1,-0.8,1.8,2471.55,13.29,0.045,316.8
2023-09-04T08:43:03,42.805,6.029,-0.022,0.006,-0.031,105.0,104.0,102.0,13.4,1505.2,338.5,-0.8,1.8,2471.562,13.29,0.022,285.3
2023-09-04T08:46:03,42.805,6.029,-0.011,0.009,-0.014,104.0,103.0,101.0,13.4,1505.2,329.5,-0.7,1.8,2471.515,13.29,0.014,309.3
2023-09-04T08:49:03,42.805,6.029,-0.019,0.006,-0.027,103.0,104.0,101.0,13.4,1505.2,331.9,-0.8,1.8,2471.583,13.29,0.019,287.5
2023-09-04T08:52:03,42.805,6.029,0.005,0.027,-0.039,104.0,104.0,102.0,13.3,1505.2,333.9,-0.7,1.8,2471.524,13.29,0.027,10.5
2023-09-04T08:55:03,42.805,6.029,-0.006,0.005,-0.016,104.0,103.0,102.0,13.4,1505.2,339.9,-0.8,1.8,2471.517,13.29,0.007,309.8
2023-09-04T08:58:03,42.805,6.029,-0.026,0.039,0.01,103.0,102.0,102.0,13.3,1505.2,349.3,-0.7,1.8,2471.545,13.29,0.046,326.3
2023-09-04T09:04:03,42.805,6.029,-0.021,0.024,-0.041,103.0,103.0,102.0,13.3,1505.2,326.5,-0.8,1.8,2471.585,13.29,0.031,318.8
2023-09-04T09:07:03,42.805,6.029,-0.002,0.008,0.004,103.0,104.0,101.0,13.4,1505.2,325.4,-0.8,1.8,2471.606,13.29,0.008,346.0
2023-09-04T09:10:03,42.805,6.029,-0.014,0.005,-0.023,103.0,103.0,101.0,13.4,1505.2,336.9,-0.8,1.8,2471.566,13.29,0.014,289.6
2023-09-04T09:13:03,42.805,6.029,-0.011,0.011,-0.002,105.0,104.0,100.0,13.3,1505.2,326.0,-0.8,1.8,2471.596,13.29,0.015,315.0
2023-09-04T09:16:03,42.805,6.029,-0.034,0.014,-0.004,103.0,103.0,102.0,13.4,1505.2,326.3,-0.8,1.8,2471.595,13.29,0.036,292.4
2023-09-04T09:19:03,42.805,6.029,-0.028,0.003,-0.073,102.0,103.0,101.0,13.3,1505.2,336.5,-0.8,1.8,2471.566,13.29,0.028,276.1
2023-09-04T09:22:03,42.805,6.029,-0.012,0.018,-0.022,103.0,103.0,102.0,13.4,1505.2,342.5,-0.7,1.9,2471.576,13.29,0.021,326.3
2023-09-04T09:25:03,42.805,6.029,-0.011,0.001,0.026,104.0,103.0,102.0,13.3,1505.2,342.9,-0.8,1.8,2471.57,13.29,0.011,275.2
2023-09-04T09:28:03,42.805,6.029,-0.027,0.033,0.005,103.0,102.0,101.0,13.4,1505.2,350.1,-0.8,1.8,2471.557,13.29,0.042,320.7
2023-09-04T09:31:03,42.805,6.029,-0.014,0.009,-0.01,104.0,104.0,101.0,13.4,1505.2,326.5,-0.8,1.8,2471.564,13.29,0.016,302.7
2023-09-04T09:34:03,42.805,6.029,-0.028,0.022,-0.006,104.0,104.0,102.0,13.3,1505.2,343.0,-0.8,1.8,2471.564,13.29,0.035,308.2
2023-09-04T09:37:03,42.805,6.029,-0.022,0.017,-0.031,104.0,103.0,102.0,13.3,1505.2,338.9,-0.8,1.8,2471.517,13.29,0.027,307.7
2023-09-04T09:40:03,42.805,6.029,-0.017,0.001,-0.002,104.0,103.0,102.0,13.4,1505.2,337.5,-0.8,1.9,2471.558,13.29,0.017,273.4
2023-09-04T09:43:03,42.805,6.029,-0.01,0.017,-0.046,104.0,104.0,102.0,13.4,1505.2,352.3,-0.7,1.9,2471.56,13.29,0.019,329.5
2023-09-04T09:46:03,42.805,6.029,-0.008,0.027,0.021,104.0,103.0,102.0,13.4,1505.2,340.9,-0.7,1.8,2471.534,13.29,0.028,343.5
2023-09-04T09:49:03,42.805,6.029,-0.02,0.01,-0.041,105.0,103.0,101.0,13.3,1505.2,323.5,-0.8,1.8,2471.555,13.29,0.022,296.6
2023-09-04T09:52:03,42.805,6.029,-0.017,0.026,-0.01,103.0,103.0,101.0,13.3,1505.2,334.7,-0.8,1.8,2471.537,13.29,0.031,326.8
2023-09-04T09:55:03,42.805,6.029,-0.034,0.011,-0.022,104.0,102.0,101.0,13.4,1505.2,333.8,-0.8,1.8,2471.531,13.29,0.035,287.9